Weather History for Charlevoix, MI

Change the Weather History Date:

Sunday, October 21, 2012

  Actual Average Record
Temperature  
Mean Temperature 51 °F -  
Max Temperature 59 °F 55 °F 71 °F (2007)
Min Temperature 43 °F 43 °F 30 °F (2005)
Degree Days  
Heating Degree Days 14    
Growing Degree Days 1 (Base 50)    
Moisture  
Dew Point 46 °F    
Average Humidity 84    
Maximum Humidity 99    
Minimum Humidity 54    
Precipitation  
Precipitation 0.00 in - - ()
Sea Level Pressure  
Sea Level Pressure 30.00 in    
Wind  
Wind Speed 7 mph (SW)    
Max Wind Speed 14 mph    
Max Gust Speed 18 mph    
Visibility 8 miles    
Events Fog    
Averages and records for this station are not official NWS values.
T = Trace of Precipitation, MM = Missing Value Source: NWS Daily Summary

Daily Weather History Graph

Daily Weather History Graph

Search for Another Location

Airport:

Trip Planner

Search our weather history database for the weather conditions in past years. The results will help you decide how hot, cold, wet, or windy it might be!

Date:

Astronomy

Oct. 21, 2012 Rise Set
Actual Time 8:05 AM EDT 6:44 PM EDT
Civil Twilight 7:35 AM EDT 7:14 PM EDT
Nautical Twilight 7:01 AM EDT 7:49 PM EDT
Astronomical Twilight 6:27 AM EDT 8:23 PM EDT
Moon 2:31 PM EDT (10/21) No Moon Set
Length of Visible Light 11h 39m
Length of Day
10h 38m
Waxing Crescent, 45% of the Moon is Illuminated
Oct 21
Waxing Crescent
Oct 21
First Quarter
Oct 29
Full
Nov 6
Last Quarter
Nov 13
New

Hourly Weather History & Observations

Time (EDT) Temp. Windchill Dew Point Humidity Pressure Visibility Wind Dir Wind Speed Gust Speed Precip Events Conditions
12:14 AM 50.2 °F - 47.5 °F 90% 29.87 in 10.0 mi WSW 8.1 mph - N/A   Clear
12:34 AM 50.9 °F - 48.6 °F 92% 29.88 in 10.0 mi WSW 8.1 mph - N/A   Scattered Clouds
12:54 AM 50.5 °F - 47.7 °F 90% 29.89 in 10.0 mi WSW 6.9 mph - N/A   Scattered Clouds
1:14 AM 51.3 °F - 48.4 °F 90% 29.90 in 10.0 mi WSW 8.1 mph - N/A   Mostly Cloudy
1:34 AM 51.3 °F - 48.2 °F 89% 29.90 in 10.0 mi WSW 8.1 mph - N/A   Scattered Clouds
1:54 AM 51.4 °F - 47.8 °F 87% 29.90 in 10.0 mi WSW 9.2 mph - N/A   Clear
2:14 AM 49.8 °F - 46.9 °F 90% 29.90 in 10.0 mi South 4.6 mph - N/A   Clear
2:34 AM 48.2 °F - 46.4 °F 93% 29.91 in 10.0 mi SSW 4.6 mph - N/A   Scattered Clouds
2:54 AM 49.1 °F - 46.9 °F 92% 29.92 in 10.0 mi SSW 6.9 mph - N/A   Scattered Clouds
3:14 AM 49.1 °F - 46.8 °F 92% 29.92 in 10.0 mi SW 6.9 mph - N/A   Scattered Clouds
3:34 AM 48.4 °F - 46.4 °F 93% 29.93 in 10.0 mi SSW 5.8 mph - N/A   Clear
3:54 AM 48.0 °F - 46.2 °F 93% 29.93 in 10.0 mi SSW 5.8 mph - N/A   Scattered Clouds
4:14 AM 48.6 °F - 46.6 °F 93% 29.94 in 10.0 mi SSW 8.1 mph - N/A   Scattered Clouds
4:34 AM 48.2 °F - 46.4 °F 93% 29.94 in 10.0 mi SW 5.8 mph - N/A   Clear
4:54 AM 48.6 °F - 46.6 °F 93% 29.95 in 10.0 mi SW 4.6 mph - N/A   Clear
5:14 AM 48.2 °F - 46.2 °F 93% 29.95 in 10.0 mi SSW 4.6 mph - N/A   Clear
5:34 AM 46.0 °F - 44.2 °F 93% 29.95 in 7.0 mi Calm Calm - N/A   Clear
5:54 AM 45.0 °F - 44.1 °F 97% 29.96 in 5.0 mi Calm Calm - N/A   Clear
6:14 AM 46.4 °F 45.2 °F 45.7 °F 97% 29.96 in 7.0 mi South 3.5 mph - N/A   Clear
6:34 AM 43.9 °F - 43.0 °F 97% 29.97 in 5.0 mi Calm Calm - N/A   Clear
6:54 AM 44.4 °F - 43.7 °F 97% 29.97 in 4.0 mi Calm Calm - N/A   Clear
7:14 AM 43.7 °F - 43.3 °F 99% 29.98 in 2.0 mi Calm Calm - N/A   Scattered Clouds
7:34 AM 44.4 °F - 43.7 °F 97% 29.98 in 0.5 mi Calm Calm - N/A Fog Fog
7:54 AM 45.0 °F 43.5 °F 44.6 °F 99% 29.99 in 2.0 mi South 3.5 mph - N/A   Overcast
8:14 AM 45.0 °F - 44.6 °F 99% 29.99 in 2.0 mi Calm Calm - N/A   Scattered Clouds
8:34 AM 45.0 °F - 44.6 °F 99% 29.99 in 0.8 mi Calm Calm - N/A   Scattered Clouds
8:54 AM 45.3 °F 44.0 °F 45.0 °F 99% 30.00 in 0.5 mi South 3.5 mph - N/A Fog Fog
9:14 AM 46.4 °F 42.9 °F 46.0 °F 99% 30.01 in 0.5 mi SSW 6.9 mph - N/A Fog Fog
9:34 AM 47.3 °F - 46.9 °F 99% 30.01 in 1.0 mi SSW 6.9 mph - N/A   Overcast
9:54 AM 48.2 °F - 48.0 °F 99% 30.02 in 1.5 mi South 5.8 mph - N/A   Overcast
10:14 AM 50.2 °F - 49.8 °F 99% 30.02 in 4.0 mi South 3.5 mph - N/A   Scattered Clouds
10:34 AM 52.0 °F - 51.6 °F 99% 30.02 in 10.0 mi SW 6.9 mph - N/A   Scattered Clouds
10:54 AM 53.8 °F - 50.9 °F 90% 30.03 in 10.0 mi SW 9.2 mph - N/A   Scattered Clouds
11:14 AM 53.8 °F - 50.0 °F 87% 30.04 in 10.0 mi SW 9.2 mph - N/A   Mostly Cloudy
11:34 AM 55.6 °F - 50.4 °F 83% 30.04 in 10.0 mi WSW 11.5 mph - N/A   Scattered Clouds
11:54 AM 54.1 °F - 48.7 °F 82% 30.04 in 10.0 mi WSW 8.1 mph - N/A   Scattered Clouds
12:14 PM 55.8 °F - 46.9 °F 72% 30.04 in 10.0 mi WSW 8.1 mph - N/A   Scattered Clouds
12:34 PM 57.4 °F - 47.8 °F 70% 30.05 in 10.0 mi West 13.8 mph - N/A   Scattered Clouds
12:54 PM 57.4 °F - 47.7 °F 70% 30.05 in 10.0 mi West 13.8 mph 18.4 mph N/A   Scattered Clouds
1:14 PM 57.6 °F - 46.0 °F 65% 30.05 in 10.0 mi West 12.7 mph 16.1 mph N/A   Scattered Clouds
1:34 PM 58.3 °F - 45.1 °F 62% 30.04 in 10.0 mi WSW 8.1 mph - N/A   Scattered Clouds
1:54 PM 58.6 °F - 46.0 °F 63% 30.03 in 10.0 mi West 9.2 mph - N/A   Scattered Clouds
2:14 PM 59.2 °F - 45.5 °F 60% 30.03 in 10.0 mi West 12.7 mph - N/A   Scattered Clouds
2:34 PM 58.6 °F - 44.1 °F 58% 30.03 in 10.0 mi West 11.5 mph 16.1 mph N/A   Clear
2:54 PM 59.0 °F - 43.9 °F 57% 30.03 in 10.0 mi West 11.5 mph - N/A   Clear
3:14 PM 59.5 °F - 42.6 °F 54% 30.03 in 10.0 mi West 11.5 mph - N/A   Clear
3:34 PM 59.4 °F - 42.6 °F 54% 30.03 in 10.0 mi West 11.5 mph - N/A   Clear
3:54 PM 59.0 °F - 43.0 °F 55% 30.03 in 10.0 mi West 10.4 mph - N/A   Clear
4:14 PM 58.1 °F - 42.8 °F 57% 30.03 in 10.0 mi West 10.4 mph - N/A   Clear
4:34 PM 58.1 °F - 41.9 °F 55% 30.04 in 10.0 mi West 12.7 mph - N/A   Clear
4:54 PM 57.6 °F - 43.7 °F 60% 30.03 in 10.0 mi West 11.5 mph - N/A   Clear
5:14 PM 56.1 °F - 44.8 °F 66% 30.03 in 10.0 mi WSW 9.2 mph - N/A   Clear
5:34 PM 57.0 °F - 44.6 °F 63% 30.04 in 10.0 mi WSW 10.4 mph - N/A   Clear
5:55 PM 54.9 °F - 43.7 °F 66% 30.05 in 10.0 mi WSW 10.4 mph 18.4 mph N/A   Clear
6:14 PM 54.5 °F - 43.3 °F 66% 30.05 in 10.0 mi West 11.5 mph - N/A   Clear
6:34 PM 53.6 °F - 43.7 °F 69% 30.05 in 10.0 mi WSW 8.1 mph - N/A   Clear
6:54 PM 52.5 °F - 44.2 °F 73% 30.05 in 10.0 mi WSW 5.8 mph - N/A   Clear
7:14 PM 51.4 °F - 44.6 °F 77% 30.04 in 10.0 mi SW 4.6 mph - N/A   Clear
7:33 PM 51.1 °F - 45.0 °F 80% 30.05 in 10.0 mi WSW 3.5 mph - N/A   Clear
7:54 PM 49.6 °F - 44.2 °F 82% 30.04 in 10.0 mi WSW 5.8 mph - N/A   Clear
8:14 PM 47.5 °F - 43.9 °F 87% 30.05 in 10.0 mi WSW 3.5 mph - N/A   Clear
8:34 PM 47.8 °F - 44.4 °F 88% 30.05 in 10.0 mi SW 4.6 mph - N/A   Clear
8:54 PM 47.8 °F - 44.8 °F 89% 30.04 in 10.0 mi SSW 4.6 mph - N/A   Clear
9:14 PM 47.5 °F - 44.2 °F 89% 30.04 in 10.0 mi South 3.5 mph - N/A   Clear
9:34 PM 48.4 °F - 45.0 °F 88% 30.05 in 10.0 mi SSW 3.5 mph - N/A   Clear
9:54 PM 45.7 °F - 43.5 °F 92% 30.05 in 10.0 mi Calm Calm - N/A   Clear
10:14 PM 45.0 °F 43.5 °F 43.0 °F 93% 30.05 in 10.0 mi SE 3.5 mph - N/A   Clear
10:34 PM 45.0 °F 42.6 °F 43.5 °F 95% 30.05 in 10.0 mi SE 4.6 mph - N/A   Clear
10:54 PM 45.5 °F 43.2 °F 43.9 °F 94% 30.05 in 10.0 mi SSE 4.6 mph - N/A   Clear
11:14 PM 46.0 °F 44.8 °F 44.4 °F 94% 30.05 in 10.0 mi SE 3.5 mph - N/A   Clear
11:34 PM 46.4 °F 44.3 °F 44.1 °F 92% 30.05 in 10.0 mi SE 4.6 mph - N/A   Clear
11:54 PM 44.6 °F 43.1 °F 42.8 °F 93% 30.05 in 10.0 mi SE 3.5 mph - N/A   Clear